TimeCDT,TemperatureF,Dew PointF,Humidity,Sea Level PressureIn,VisibilityMPH,Wind Direction,Wind SpeedMPH,Gust SpeedMPH,PrecipitationIn,Events,Conditions,WindDirDegrees,DateUTC
12:15 AM,69.8,53.6,56,29.89,10.0,SSW,15.0,19.6,N/A,,Clear,210,2013-05-09 05:15:00
12:35 AM,69.8,55.4,60,29.90,10.0,SW,11.5,23.0,N/A,,Clear,220,2013-05-09 05:35:00
12:55 AM,68.0,57.2,68,29.89,10.0,Calm,Calm,-,N/A,,Mostly Cloudy,0,2013-05-09 05:55:00
1:35 AM,66.2,57.2,73,29.90,10.0,Calm,Calm,-,N/A,,Overcast,0,2013-05-09 06:35:00
2:15 AM,64.4,59.0,83,29.90,10.0,NW,6.9,-,N/A,,Overcast,310,2013-05-09 07:15:00
2:35 AM,64.4,59.0,83,29.89,10.0,Calm,Calm,-,N/A,,Mostly Cloudy,0,2013-05-09 07:35:00
2:55 AM,62.6,57.2,82,29.90,10.0,WNW,4.6,-,N/A,,Mostly Cloudy,290,2013-05-09 07:55:00
3:15 AM,62.6,57.2,82,29.91,10.0,WSW,4.6,-,N/A,,Overcast,240,2013-05-09 08:15:00
3:35 AM,62.6,55.4,77,29.89,10.0,NNW,5.8,-,N/A,,Mostly Cloudy,330,2013-05-09 08:35:00
3:55 AM,62.6,55.4,77,29.88,10.0,North,8.1,-,N/A,Thunderstorm,Thunderstorm,10,2013-05-09 08:55:00
4:35 AM,59.0,55.4,88,29.92,3.0,WNW,15.0,-,N/A,Rain-Thunderstorm,Heavy Thunderstorms and Rain,300,2013-05-09 09:35:00
4:55 AM,59.0,55.4,88,29.95,4.0,WNW,12.7,-,N/A,Rain-Thunderstorm,Rain,300,2013-05-09 09:55:00
5:15 AM,59.0,55.4,88,29.96,5.0,WNW,8.1,-,N/A,Rain-Thunderstorm,Rain,290,2013-05-09 10:15:00
5:35 AM,57.2,55.4,94,29.94,5.0,West,5.8,-,N/A,Rain-Thunderstorm,Heavy Thunderstorms and Rain,270,2013-05-09 10:35:00
5:55 AM,57.2,55.4,94,29.92,7.0,Calm,Calm,-,N/A,Rain-Thunderstorm,Thunderstorms and Rain,0,2013-05-09 10:55:00
6:15 AM,57.2,55.4,94,29.92,10.0,Calm,Calm,-,N/A,Rain-Thunderstorm,Light Thunderstorms and Rain,0,2013-05-09 11:15:00
6:35 AM,57.2,55.4,94,29.91,10.0,ENE,6.9,-,N/A,Rain,Light Rain,70,2013-05-09 11:35:00
6:55 AM,57.2,55.4,94,29.81,10.0,ENE,16.1,-,N/A,Rain,Light Rain,70,2013-05-09 11:55:00
7:55 AM,57.2,55.4,94,29.89,10.0,South,4.6,-,N/A,,Clear,190,2013-05-09 12:55:00
8:15 AM,59.0,55.4,88,29.90,10.0,South,4.6,-,N/A,,Clear,190,2013-05-09 13:15:00
8:35 AM,59.0,57.2,94,29.91,10.0,SSW,8.1,-,N/A,,Clear,200,2013-05-09 13:35:00
9:35 AM,60.8,57.2,88,29.96,10.0,West,5.8,-,N/A,,Overcast,260,2013-05-09 14:35:00
9:55 AM,60.8,57.2,88,29.97,10.0,WSW,8.1,-,N/A,,Overcast,250,2013-05-09 14:55:00
10:35 AM,64.4,59.0,83,29.97,10.0,SSW,9.2,-,N/A,,Mostly Cloudy,210,2013-05-09 15:35:00
10:55 AM,64.4,59.0,83,29.97,10.0,SSW,6.9,-,N/A,,Mostly Cloudy,200,2013-05-09 15:55:00
11:15 AM,66.2,57.2,73,29.97,10.0,SW,8.1,-,N/A,,Mostly Cloudy,220,2013-05-09 16:15:00
11:35 AM,66.2,59.0,78,29.97,10.0,SSW,5.8,-,N/A,,Overcast,210,2013-05-09 16:35:00
12:15 PM,68.0,55.4,64,29.97,10.0,SSW,8.1,-,N/A,,Clear,210,2013-05-09 17:15:00
12:55 PM,69.8,59.0,68,29.95,10.0,WSW,5.8,-,N/A,,Scattered Clouds,240,2013-05-09 17:55:00
1:15 PM,69.8,59.0,68,29.93,10.0,SSW,6.9,-,N/A,,Scattered Clouds,200,2013-05-09 18:15:00
1:35 PM,69.8,59.0,68,29.94,10.0,SSW,6.9,-,N/A,,Scattered Clouds,200,2013-05-09 18:35:00
1:55 PM,69.8,59.0,68,29.94,10.0,SW,6.9,-,N/A,,Mostly Cloudy,230,2013-05-09 18:55:00
2:15 PM,71.6,59.0,64,29.94,10.0,SW,6.9,-,N/A,,Mostly Cloudy,220,2013-05-09 19:15:00
2:35 PM,69.8,59.0,68,29.95,10.0,WSW,8.1,-,N/A,,Overcast,240,2013-05-09 19:35:00
2:55 PM,69.8,60.8,73,29.96,10.0,SW,6.9,-,N/A,,Overcast,220,2013-05-09 19:55:00
3:15 PM,69.8,60.8,73,29.96,10.0,SW,8.1,-,N/A,,Overcast,220,2013-05-09 20:15:00
3:35 PM,69.8,60.8,73,29.94,10.0,WSW,4.6,-,N/A,,Mostly Cloudy,250,2013-05-09 20:35:00
3:55 PM,71.6,60.8,69,29.93,10.0,West,8.1,-,N/A,,Scattered Clouds,260,2013-05-09 20:55:00
4:15 PM,71.6,60.8,69,29.93,10.0,WSW,9.2,-,N/A,,Mostly Cloudy,240,2013-05-09 21:15:00
4:35 PM,71.6,60.8,69,29.93,10.0,WSW,5.8,-,N/A,,Overcast,240,2013-05-09 21:35:00
4:55 PM,71.6,60.8,69,29.93,10.0,SW,8.1,-,N/A,,Overcast,230,2013-05-09 21:55:00
5:15 PM,71.6,60.8,69,29.92,10.0,WSW,8.1,-,N/A,,Mostly Cloudy,240,2013-05-09 22:15:00
5:35 PM,71.6,60.8,69,29.92,10.0,SSW,4.6,-,N/A,,Scattered Clouds,210,2013-05-09 22:35:00
5:55 PM,71.6,60.8,69,29.91,10.0,SSW,5.8,-,N/A,,Clear,210,2013-05-09 22:55:00
6:15 PM,71.6,60.8,69,29.91,10.0,SW,5.8,-,N/A,Thunderstorm,Clear,230,2013-05-09 23:15:00
6:35 PM,71.6,60.8,69,29.90,10.0,SW,4.6,-,N/A,,Clear,230,2013-05-09 23:35:00
6:55 PM,69.8,60.8,73,29.90,10.0,SW,6.9,-,N/A,,Mostly Cloudy,230,2013-05-09 23:55:00
7:15 PM,69.8,60.8,73,29.89,10.0,WSW,4.6,-,N/A,,Scattered Clouds,240,2013-05-10 00:15:00
7:35 PM,68.0,62.6,83,29.90,10.0,South,5.8,-,N/A,,Clear,190,2013-05-10 00:35:00
7:55 PM,68.0,62.6,83,29.90,10.0,SSW,3.5,-,N/A,,Clear,200,2013-05-10 00:55:00
8:15 PM,68.0,62.6,83,29.90,10.0,South,3.5,-,N/A,,Clear,190,2013-05-10 01:15:00
8:35 PM,64.4,60.8,88,29.90,10.0,SSW,3.5,-,N/A,,Clear,200,2013-05-10 01:35:00
8:55 PM,66.2,60.8,83,29.90,10.0,Calm,Calm,-,N/A,,Scattered Clouds,0,2013-05-10 01:55:00
9:15 PM,66.2,60.8,83,29.91,10.0,Calm,Calm,-,N/A,,Overcast,0,2013-05-10 02:15:00
9:35 PM,64.4,60.8,88,29.92,10.0,South,3.5,-,N/A,,Overcast,190,2013-05-10 02:35:00
9:55 PM,66.2,60.8,83,29.94,10.0,Calm,Calm,-,N/A,,Overcast,0,2013-05-10 02:55:00
10:15 PM,68.0,60.8,78,29.95,10.0,SSW,4.6,-,N/A,,Overcast,210,2013-05-10 03:15:00
10:35 PM,66.2,60.8,83,29.95,10.0,SSW,3.5,-,N/A,,Overcast,210,2013-05-10 03:35:00
10:55 PM,64.4,60.8,88,29.96,10.0,SSW,4.6,-,N/A,,Overcast,210,2013-05-10 03:55:00
11:15 PM,64.4,60.8,88,29.96,10.0,SW,4.6,-,N/A,,Overcast,230,2013-05-10 04:15:00
11:35 PM,64.4,60.8,88,29.96,10.0,West,4.6,-,N/A,,Overcast,280,2013-05-10 04:35:00
11:55 PM,62.6,60.8,94,29.95,10.0,NNW,6.9,-,N/A,,Scattered Clouds,330,2013-05-10 04:55:00